Starlink 5159

operational
NORAD ID: 53974 Int'l Des: 2022-125 Owner: SPXS Country: US Constellation: starlink
LEOCIRCULAR

About Starlink 5159

Description loading...

Live Position

Loading 3D Globe...

Upcoming Passes

Altitude History

Altitude vs Time

uPlot chart will show altitude changes over time

Two-Line Element Set

1 53974U 22125L 25303.09794943 .00000926 00000-0 76225-4 0 9991
2 53974 53.2195 69.9710 0001193 88.5581 271.5548 15.08843345169892
Epoch: Oct 30, 2025 • Age: 15 hours

Current Status

Altitude 540.1 km
Velocity 7.59 km/s
Sub-Earth Point 4.19°N, 56.7°W
Launch Date Oct 5, 2022
Age 3 years
Type internet

Technical Details

Classification Payload
Mass 305.00 kg
Dry Mass 290.00 kg
Total Mass 305.00 kg
Length 0.20 m
Diameter 2.80 m
Span 9.00 m
Shape Box + pan
Manufacturer SPXS
Bus Type Starlink
Phase Status In Orbit
Owner/State SPXS/US

Large Constellations

Loading constellations...